TimeEST,TemperatureF,Dew PointF,Humidity,Sea Level PressureIn,VisibilityMPH,Wind Direction,Wind SpeedMPH,Gust SpeedMPH,PrecipitationIn,Events,Conditions,WindDirDegrees,DateUTC
12:56 AM,18.0,12.9,81,30.56,10.0,West,5.8,-,N/A,,Overcast,270,2013-12-08 05:56:00
1:56 AM,19.0,12.9,77,30.55,7.0,West,3.5,-,0.00,Snow,Light Snow,270,2013-12-08 06:56:00
2:56 AM,18.0,12.9,81,30.56,9.0,WSW,3.5,-,0.00,,Overcast,240,2013-12-08 07:56:00
3:56 AM,18.0,12.0,78,30.54,10.0,Calm,Calm,-,0.00,,Mostly Cloudy,0,2013-12-08 08:56:00
4:05 AM,17.6,12.2,79,30.43,10.0,Calm,Calm,-,N/A,,Scattered Clouds,0,2013-12-08 09:05:00
4:56 AM,17.1,12.0,81,30.55,10.0,North,3.5,-,N/A,,Clear,350,2013-12-08 09:56:00
5:56 AM,17.1,12.0,81,30.56,10.0,Calm,Calm,-,N/A,,Clear,0,2013-12-08 10:56:00
6:56 AM,17.1,12.9,84,30.57,10.0,Calm,Calm,-,N/A,,Clear,0,2013-12-08 11:56:00
7:56 AM,17.1,12.9,84,30.57,10.0,South,5.8,-,N/A,,Clear,180,2013-12-08 12:56:00
8:56 AM,18.0,12.9,81,30.57,10.0,SSE,3.5,-,N/A,,Clear,150,2013-12-08 13:56:00
9:56 AM,19.0,12.9,77,30.55,10.0,SE,5.8,-,N/A,,Partly Cloudy,130,2013-12-08 14:56:00
10:56 AM,19.9,12.9,74,30.56,10.0,SSE,3.5,-,N/A,,Overcast,160,2013-12-08 15:56:00
11:56 AM,21.0,12.0,68,30.52,10.0,SSE,5.8,-,N/A,,Overcast,150,2013-12-08 16:56:00
12:56 PM,21.9,12.9,68,30.47,10.0,ESE,6.9,-,N/A,,Mostly Cloudy,110,2013-12-08 17:56:00
1:56 PM,21.9,12.0,66,30.46,10.0,SSE,8.1,-,N/A,,Overcast,150,2013-12-08 18:56:00
2:56 PM,21.9,12.9,68,30.45,10.0,SE,6.9,-,N/A,,Overcast,140,2013-12-08 19:56:00
3:56 PM,21.9,12.0,66,30.42,10.0,SE,10.4,-,N/A,,Overcast,130,2013-12-08 20:56:00
4:56 PM,21.9,12.0,66,30.41,10.0,SE,8.1,-,N/A,,Overcast,130,2013-12-08 21:56:00
5:56 PM,21.9,12.0,66,30.39,10.0,SE,10.4,-,N/A,,Overcast,140,2013-12-08 22:56:00
6:56 PM,21.0,15.1,78,30.37,5.0,SSE,12.7,-,0.00,Snow,Light Snow,150,2013-12-08 23:56:00
7:56 PM,21.0,15.1,78,30.34,5.0,SE,9.2,-,0.00,Snow,Light Snow,140,2013-12-09 00:56:00
8:14 PM,21.2,15.8,80,30.22,5.0,SE,11.5,19.6,0.00,Snow,Light Snow,140,2013-12-09 01:14:00
8:30 PM,21.2,15.8,80,30.21,4.0,SE,11.5,19.6,0.00,Snow,Light Snow,140,2013-12-09 01:30:00
8:56 PM,21.0,16.0,81,30.31,4.0,SSE,12.7,-,0.00,Snow,Light Snow,150,2013-12-09 01:56:00
9:18 PM,21.2,15.8,80,30.19,4.0,SSE,10.4,21.9,0.00,Snow,Light Snow,150,2013-12-09 02:18:00
9:48 PM,21.2,17.6,86,30.18,1.8,SE,13.8,-,0.00,Snow,Light Snow,140,2013-12-09 02:48:00
9:56 PM,21.0,17.1,85,30.29,1.5,SE,11.5,-,0.00,Snow,Light Snow,140,2013-12-09 02:56:00
10:04 PM,21.2,17.6,86,30.18,3.0,SSE,13.8,-,0.00,Snow,Light Snow,150,2013-12-09 03:04:00
10:11 PM,21.2,17.6,86,30.17,8.0,SSE,10.4,-,0.00,,Overcast,150,2013-12-09 03:11:00
10:21 PM,21.2,17.6,86,30.17,1.8,SSE,12.7,-,0.00,Snow,Light Snow,150,2013-12-09 03:21:00
10:46 PM,21.2,17.6,86,30.14,2.5,SSE,11.5,18.4,0.00,Snow,Light Snow,150,2013-12-09 03:46:00
10:54 PM,21.2,17.6,86,30.13,4.0,SSE,13.8,21.9,0.00,Snow,Light Snow,160,2013-12-09 03:54:00
10:56 PM,21.9,18.0,85,30.23,5.0,SSE,15.0,23.0,0.00,Snow,Light Snow,150,2013-12-09 03:56:00
11:27 PM,24.8,19.4,80,30.11,10.0,SSE,16.1,26.5,0.00,,Overcast,150,2013-12-09 04:27:00
11:40 PM,24.8,19.4,80,30.10,10.0,SSE,15.0,23.0,0.00,,Overcast,160,2013-12-09 04:40:00
11:56 PM,24.1,19.9,84,30.20,10.0,South,13.8,27.6,0.00,,Overcast,170,2013-12-09 04:56:00